| time (UTC) | temp C | wind direction | speed KPH | gust KPH | rain 1hr cm | rain 24hr cm | rain mn cm | humidity % | barometer mb |
| 20260506211445 | 0 | 212 | 0.0 | 0.0 | 0.00 | 0.00 | 0.00 | 86 | 1023.2 |
| 20260506210943 | 0 | 196 | 0.0 | 0.0 | 0.00 | 0.00 | 0.00 | 84 | 1023.5 |
| 20260506210439 | 0 | 259 | 0.0 | 0.0 | 0.00 | 0.00 | 0.00 | 89 | 1023.5 |
| 20260506205936 | 0 | 244 | 0.0 | 0.0 | 0.00 | 0.00 | 0.00 | 89 | 1023.6 |
| 20260506205432 | 0 | 208 | 0.0 | 0.0 | 0.00 | 0.00 | 0.00 | 86 | 1023.5 |
| 20260506204928 | 0 | 191 | 0.0 | 0.0 | 0.00 | 0.00 | 0.00 | 83 | 1023.7 |
| 20260506204427 | 0 | 260 | 0.0 | 0.0 | 0.00 | 0.00 | 0.00 | 83 | 1023.7 |
| 20260506203924 | 0 | 271 | 0.0 | 0.0 | 0.00 | 0.00 | 0.00 | 85 | 1023.5 |
| 20260506203421 | 0 | 283 | 0.0 | 0.0 | 0.00 | 0.00 | 0.00 | 86 | 1024.1 |
| 20260506202917 | 0 | 285 | 0.0 | 0.0 | 0.00 | 0.00 | 0.00 | 85 | 1023.8 |
| 20260506202414 | 0 | 288 | 0.0 | 0.0 | 0.00 | 0.00 | 0.00 | 87 | 1023.7 |
| 20260506201911 | -1 | 295 | 0.0 | 0.0 | 0.00 | 0.00 | 0.00 | 92 | 1024.0 |
| 20260506201409 | -1 | 297 | 0.0 | 0.0 | 0.00 | 0.00 | 0.00 | 93 | 1024.1 |
| 20260506200905 | -1 | 297 | 0.0 | 0.0 | 0.00 | 0.00 | 0.00 | 94 | 1024.1 |
| 20260506200401 | -1 | 298 | 0.0 | 0.0 | 0.00 | 0.00 | 0.00 | 93 | 1024.2 |
| 20260506195858 | -1 | 298 | 0.0 | 0.0 | 0.00 | 0.00 | 0.00 | 94 | 1024.0 |
| 20260506195355 | -2 | 298 | 0.0 | 0.0 | 0.00 | 0.00 | 0.00 | 93 | 1024.0 |
| 20260506194852 | -2 | 299 | 0.0 | 0.0 | 0.00 | 0.00 | 0.00 | 93 | 1024.1 |
| 20260506194349 | -1 | 299 | 0.0 | 0.0 | 0.00 | 0.00 | 0.00 | 93 | 1024.0 |
| 20260506193846 | -1 | 269 | 0.0 | 0.0 | 0.00 | 0.00 | 0.00 | 93 | 1024.1 |
| 20260506193342 | -1 | 269 | 0.0 | 0.0 | 0.00 | 0.00 | 0.00 | 91 | 1024.0 |
| 20260506192838 | -1 | 269 | 0.0 | 0.0 | 0.00 | 0.00 | 0.00 | 92 | 1024.1 |
| 20260506192336 | -1 | 270 | 0.0 | 0.0 | 0.00 | 0.00 | 0.00 | 91 | 1024.2 |
| 20260506191833 | -1 | 269 | 0.0 | 0.0 | 0.00 | 0.00 | 0.00 | 90 | 1024.0 |
| 20260506191329 | -1 | 269 | 0.0 | 0.0 | 0.00 | 0.00 | 0.00 | 91 | 1024.2 |
| 20260506190826 | -1 | 269 | 0.0 | 0.0 | 0.00 | 0.00 | 0.00 | 91 | 1024.1 |
| 20260506190322 | 0 | 269 | 0.0 | 0.0 | 0.00 | 0.00 | 0.00 | 90 | 1024.4 |
| 20260506185820 | -1 | 264 | 0.0 | 0.0 | 0.00 | 0.00 | 0.00 | 91 | 1024.1 |
| 20260506185316 | -1 | 265 | 0.0 | 0.0 | 0.00 | 0.00 | 0.00 | 91 | 1024.4 |
| 20260506184813 | -1 | 267 | 0.0 | 0.0 | 0.00 | 0.00 | 0.00 | 92 | 1024.1 |
| 20260506184311 | -1 | 268 | 0.0 | 0.0 | 0.00 | 0.00 | 0.00 | 92 | 1024.2 |
| 20260506183808 | -1 | 270 | 0.0 | 0.0 | 0.00 | 0.00 | 0.00 | 93 | 1024.5 |
| 20260506183303 | -2 | 271 | 0.0 | 0.0 | 0.00 | 0.00 | 0.00 | 92 | 1024.6 |
| 20260506182800 | -2 | 271 | 0.0 | 0.0 | 0.00 | 0.00 | 0.00 | 93 | 1024.5 |
| 20260506182257 | -1 | 271 | 0.0 | 0.0 | 0.00 | 0.00 | 0.00 | 92 | 1024.4 |
| 20260506181755 | -2 | 273 | 0.0 | 0.0 | 0.00 | 0.00 | 0.00 | 93 | 1024.2 |
| 20260506181253 | -2 | 273 | 0.0 | 0.0 | 0.00 | 0.00 | 0.00 | 95 | 1024.5 |
| 20260506180750 | -2 | 274 | 0.0 | 0.0 | 0.00 | 0.00 | 0.00 | 94 | 1024.5 |
| 20260506180246 | -2 | 274 | 0.0 | 0.0 | 0.00 | 0.00 | 0.00 | 94 | 1024.4 |
| 20260506175742 | -2 | 274 | 0.0 | 0.0 | 0.00 | 0.00 | 0.00 | 94 | 1024.6 |
| 20260506175239 | -2 | 274 | 0.0 | 0.0 | 0.00 | 0.00 | 0.00 | 94 | 1024.4 |
| 20260506174737 | -2 | 274 | 0.0 | 0.0 | 0.00 | 0.00 | 0.00 | 95 | 1024.5 |
| 20260506174233 | -2 | 274 | 0.0 | 0.0 | 0.00 | 0.00 | 0.00 | 95 | 1024.6 |
| 20260506173732 | -2 | 275 | 0.0 | 0.0 | 0.00 | 0.00 | 0.00 | 95 | 1024.7 |
| 20260506173228 | -2 | 275 | 0.0 | 0.0 | 0.00 | 0.00 | 0.00 | 96 | 1024.2 |
| 20260506172724 | -2 | 275 | 0.0 | 0.0 | 0.00 | 0.00 | 0.00 | 96 | 1024.4 |
| 20260506172221 | -2 | 275 | 0.0 | 0.0 | 0.00 | 0.00 | 0.00 | 96 | 1024.1 |
| 20260506171719 | -2 | 275 | 0.0 | 0.0 | 0.00 | 0.00 | 0.00 | 96 | 1024.4 |
| 20260506171216 | -2 | 275 | 0.0 | 0.0 | 0.00 | 0.00 | 0.00 | 96 | 1024.2 |
| 20260506170713 | -3 | 275 | 0.0 | 0.0 | 0.00 | 0.00 | 0.00 | 96 | 1024.2 |
| 20260506170210 | -3 | 275 | 0.0 | 0.0 | 0.00 | 0.00 | 0.00 | 96 | 1024.1 |
| 20260506165709 | -3 | 275 | 0.0 | 0.0 | 0.00 | 0.00 | 0.00 | 96 | 1024.1 |
| 20260506165205 | -3 | 275 | 0.0 | 0.0 | 0.00 | 0.00 | 0.00 | 96 | 1024.0 |
| 20260506164702 | -3 | 275 | 0.0 | 0.0 | 0.00 | 0.00 | 0.00 | 96 | 1024.0 |
| 20260506164159 | -3 | 275 | 0.0 | 0.0 | 0.00 | 0.00 | 0.00 | 95 | 1023.6 |
| 20260506163655 | -2 | 275 | 0.0 | 0.0 | 0.00 | 0.00 | 0.00 | 95 | 1023.6 |
| 20260506163151 | -2 | 275 | 0.0 | 0.0 | 0.00 | 0.00 | 0.00 | 95 | 1023.5 |
| 20260506162647 | -2 | 275 | 0.0 | 0.0 | 0.00 | 0.00 | 0.00 | 95 | 1023.5 |
| 20260506162145 | -2 | 275 | 0.0 | 0.0 | 0.00 | 0.00 | 0.00 | 96 | 1023.5 |
| 20260506161642 | -2 | 275 | 0.0 | 0.0 | 0.00 | 0.00 | 0.00 | 96 | 1023.3 |
| 20260506161138 | -2 | 275 | 0.0 | 0.0 | 0.00 | 0.00 | 0.00 | 96 | 1023.3 |
| 20260506160636 | -3 | 275 | 0.0 | 0.0 | 0.00 | 0.00 | 0.00 | 97 | 1023.5 |
| 20260506160133 | -3 | 275 | 0.0 | 0.0 | 0.00 | 0.00 | 0.00 | 97 | 1023.3 |
| 20260506155632 | -3 | 275 | 0.0 | 0.0 | 0.00 | 0.00 | 0.00 | 97 | 1023.6 |
| 20260506155128 | -3 | 275 | 0.0 | 0.0 | 0.00 | 0.00 | 0.00 | 98 | 1023.1 |
| 20260506153230 | -3 | 275 | 0.0 | 0.0 | 0.00 | 0.00 | 0.00 | 98 | 1023.1 |
| 20260506152727 | -3 | 275 | 0.0 | 0.0 | 0.00 | 0.00 | 0.00 | 99 | 1023.2 |
| 20260506152225 | -3 | 275 | 0.0 | 0.0 | 0.00 | 0.00 | 0.00 | 99 | 1023.2 |
| 20260506151724 | -3 | 275 | 0.0 | 0.0 | 0.00 | 0.00 | 0.00 | 99 | 1023.1 |
| 20260506151219 | -3 | 275 | 0.0 | 0.0 | 0.00 | 0.00 | 0.00 | 99 | 1023.0 |
| 20260506150716 | -3 | 275 | 0.0 | 0.0 | 0.00 | 0.00 | 0.00 | 99 | 1022.8 |
| 20260506150213 | -3 | 275 | 0.0 | 0.0 | 0.00 | 0.00 | 0.00 | 99 | 1023.1 |
| 20260506145710 | -3 | 275 | 0.0 | 0.0 | 0.00 | 0.00 | 0.00 | 99 | 1023.0 |
| 20260506145207 | -3 | 275 | 0.0 | 0.0 | 0.00 | 0.00 | 0.00 | 99 | 1022.8 |
| 20260506144704 | -3 | 275 | 0.0 | 0.0 | 0.00 | 0.00 | 0.00 | 99 | 1023.0 |
| 20260506144201 | -3 | 275 | 0.0 | 0.0 | 0.00 | 0.00 | 0.00 | 99 | 1023.0 |
| 20260506143659 | -3 | 275 | 0.0 | 0.0 | 0.00 | 0.00 | 0.00 | 99 | 1022.8 |
| 20260506143156 | -3 | 276 | 0.0 | 0.0 | 0.00 | 0.00 | 0.00 | 99 | 1022.5 |
| 20260506142655 | -3 | 276 | 0.0 | 0.0 | 0.00 | 0.00 | 0.00 | 99 | 1022.8 |
| 20260506142152 | -3 | 276 | 0.0 | 0.0 | 0.00 | 0.00 | 0.00 | 99 | 1022.5 |
| 20260506141650 | -3 | 276 | 0.0 | 0.0 | 0.00 | 0.00 | 0.00 | 99 | 1022.6 |
| 20260506141148 | -3 | 276 | 0.0 | 0.0 | 0.00 | 0.00 | 0.00 | 99 | 1022.3 |
| 20260506140645 | -3 | 276 | 0.0 | 0.0 | 0.00 | 0.00 | 0.00 | 99 | 1022.8 |
| 20260506140142 | -3 | 276 | 0.0 | 0.0 | 0.00 | 0.00 | 0.00 | 99 | 1022.3 |
| 20260506135639 | -3 | 276 | 0.0 | 0.0 | 0.00 | 0.00 | 0.00 | 99 | 1022.6 |
| 20260506135135 | -3 | 276 | 0.0 | 0.0 | 0.00 | 0.00 | 0.00 | 99 | 1022.2 |
| 20260506134632 | -3 | 276 | 0.0 | 0.0 | 0.00 | 0.00 | 0.00 | 99 | 1022.6 |
| 20260506134128 | -4 | 276 | 0.0 | 0.0 | 0.00 | 0.00 | 0.00 | 99 | 1022.2 |
| 20260506133625 | -4 | 277 | 0.0 | 0.0 | 0.00 | 0.00 | 0.00 | 99 | 1022.1 |
| 20260506133122 | -4 | 277 | 0.0 | 0.0 | 0.00 | 0.00 | 0.00 | 99 | 1022.3 |
| 20260506132620 | -4 | 277 | 0.0 | 0.0 | 0.00 | 0.00 | 0.00 | 99 | 1022.2 |
| 20260506132116 | -4 | 277 | 0.0 | 0.0 | 0.00 | 0.00 | 0.00 | 99 | 1021.8 |
| 20260506131614 | -4 | 277 | 0.0 | 0.0 | 0.00 | 0.00 | 0.00 | 99 | 1022.1 |
| 20260506131110 | -4 | 277 | 0.0 | 0.0 | 0.00 | 0.00 | 0.00 | 99 | 1022.3 |
| 20260506130607 | -4 | 277 | 0.0 | 0.0 | 0.00 | 0.00 | 0.00 | 99 | 1022.2 |
| 20260506130104 | -4 | 277 | 0.0 | 0.0 | 0.00 | 0.00 | 0.00 | 99 | 1021.7 |
| 20260506125603 | -4 | 277 | 0.0 | 0.0 | 0.00 | 0.00 | 0.00 | 99 | 1022.0 |
| 20260506125100 | -4 | 277 | 0.0 | 0.0 | 0.00 | 0.00 | 0.00 | 99 | 1021.7 |
| 20260506124557 | -4 | 277 | 0.0 | 0.0 | 0.00 | 0.00 | 0.00 | 99 | 1021.4 |
| 20260506124055 | -4 | 277 | 0.0 | 0.0 | 0.00 | 0.00 | 0.00 | 99 | 1021.6 |
| 20260506123552 | -4 | 277 | 0.0 | 0.0 | 0.00 | 0.00 | 0.00 | 99 | 1021.4 |
| 20260506123051 | -4 | 277 | 0.0 | 0.0 | 0.00 | 0.00 | 0.00 | 99 | 1021.3 |
| 20260506122547 | -4 | 277 | 0.0 | 0.0 | 0.00 | 0.00 | 0.00 | 99 | 1021.1 |
| 20260506122046 | -4 | 277 | 0.0 | 0.0 | 0.00 | 0.00 | 0.00 | 99 | 1021.2 |
| 20260506121543 | -4 | 277 | 0.0 | 0.0 | 0.00 | 0.00 | 0.00 | 99 | 1021.3 |
| 20260506121038 | -4 | 277 | 0.0 | 0.0 | 0.00 | 0.00 | 0.00 | 99 | 1020.9 |
| 20260506120537 | -4 | 277 | 0.0 | 0.0 | 0.00 | 0.00 | 0.00 | 99 | 1021.3 |
| 20260506120034 | -4 | 277 | 0.0 | 0.0 | 0.00 | 0.00 | 0.00 | 99 | 1020.9 |
| 20260506115532 | -4 | 277 | 0.0 | 0.0 | 0.00 | 0.00 | 0.00 | 99 | 1020.9 |
| 20260506115030 | -4 | 277 | 0.0 | 0.0 | 0.00 | 0.00 | 0.00 | 99 | 1021.3 |
| 20260506114527 | -4 | 277 | 0.0 | 0.0 | 0.00 | 0.00 | 0.00 | 99 | 1020.9 |
| 20260506114026 | -4 | 277 | 0.0 | 0.0 | 0.00 | 0.00 | 0.00 | 99 | 1021.2 |
| 20260506113523 | -4 | 277 | 0.0 | 0.0 | 0.00 | 0.00 | 0.00 | 99 | 1020.9 |
| 20260506113020 | -4 | 277 | 0.0 | 0.0 | 0.00 | 0.00 | 0.00 | 99 | 1021.2 |
| 20260506112516 | -4 | 277 | 0.0 | 0.0 | 0.00 | 0.00 | 0.00 | 99 | 1020.9 |
| 20260506112014 | -4 | 277 | 0.0 | 0.0 | 0.00 | 0.00 | 0.00 | 99 | 1020.9 |
| 20260506111512 | -4 | 277 | 0.0 | 0.0 | 0.00 | 0.00 | 0.00 | 99 | 1020.9 |
| 20260506111009 | -4 | 277 | 0.0 | 0.0 | 0.00 | 0.00 | 0.00 | 99 | 1020.9 |
| 20260506110507 | -4 | 276 | 0.0 | 0.0 | 0.00 | 0.00 | 0.00 | 99 | 1020.6 |
| 20260506110004 | -4 | 276 | 0.0 | 0.0 | 0.00 | 0.00 | 0.00 | 99 | 1020.6 |
| 20260506105459 | -4 | 276 | 0.0 | 0.0 | 0.00 | 0.00 | 0.00 | 99 | 1020.7 |
| 20260506104957 | -4 | 276 | 0.0 | 0.0 | 0.00 | 0.00 | 0.00 | 99 | 1020.9 |
| 20260506104455 | -4 | 276 | 0.0 | 0.0 | 0.00 | 0.00 | 0.00 | 99 | 1020.8 |
| 20260506103953 | -4 | 276 | 0.0 | 0.0 | 0.00 | 0.00 | 0.00 | 99 | 1020.9 |
| 20260506103449 | -4 | 276 | 0.0 | 0.0 | 0.00 | 0.00 | 0.00 | 99 | 1020.9 |
| 20260506102946 | -4 | 276 | 0.0 | 0.0 | 0.00 | 0.00 | 0.00 | 99 | 1020.9 |
| 20260506102444 | -4 | 276 | 0.0 | 0.0 | 0.00 | 0.00 | 0.00 | 99 | 1020.9 |
| 20260506101942 | -4 | 276 | 0.0 | 0.0 | 0.00 | 0.00 | 0.00 | 99 | 1021.2 |
| 20260506101438 | -4 | 276 | 0.0 | 0.0 | 0.00 | 0.00 | 0.00 | 99 | 1020.9 |
| 20260506100935 | -4 | 276 | 0.0 | 0.0 | 0.00 | 0.00 | 0.00 | 99 | 1020.8 |
| 20260506100433 | -4 | 276 | 0.0 | 0.0 | 0.00 | 0.00 | 0.00 | 99 | 1021.3 |
| 20260506095931 | -4 | 276 | 0.0 | 0.0 | 0.00 | 0.00 | 0.00 | 99 | 1020.8 |
| 20260506095429 | -4 | 276 | 0.0 | 0.0 | 0.00 | 0.00 | 0.00 | 99 | 1021.1 |
| 20260506094925 | -4 | 276 | 0.0 | 0.0 | 0.00 | 0.00 | 0.00 | 99 | 1020.9 |
| 20260506094424 | -4 | 276 | 0.0 | 0.0 | 0.00 | 0.00 | 0.00 | 99 | 1021.2 |
| 20260506093921 | -4 | 276 | 0.0 | 0.0 | 0.00 | 0.00 | 0.00 | 99 | 1020.8 |
| 20260506093419 | -4 | 276 | 0.0 | 0.0 | 0.00 | 0.00 | 0.00 | 99 | 1020.7 |
| 20260506092917 | -4 | 276 | 0.0 | 0.0 | 0.00 | 0.00 | 0.00 | 99 | 1020.8 |
| 20260506092415 | -4 | 276 | 0.0 | 0.0 | 0.00 | 0.00 | 0.00 | 99 | 1020.7 |
| 20260506091910 | -4 | 276 | 0.0 | 0.0 | 0.00 | 0.00 | 0.00 | 99 | 1020.8 |
| 20260506091409 | -3 | 276 | 0.0 | 0.0 | 0.00 | 0.00 | 0.00 | 99 | 1020.7 |
| 20260506090906 | -3 | 276 | 0.0 | 0.0 | 0.00 | 0.00 | 0.00 | 99 | 1020.8 |
| 20260506090403 | -3 | 276 | 0.0 | 0.0 | 0.00 | 0.00 | 0.00 | 99 | 1020.4 |
| 20260506085900 | -3 | 276 | 0.0 | 0.0 | 0.00 | 0.00 | 0.00 | 99 | 1020.9 |
| 20260506085356 | -3 | 276 | 0.0 | 0.0 | 0.00 | 0.00 | 0.00 | 99 | 1020.7 |
| 20260506084853 | -3 | 276 | 0.0 | 0.0 | 0.00 | 0.00 | 0.00 | 99 | 1020.6 |
| 20260506084350 | -3 | 276 | 0.0 | 0.0 | 0.00 | 0.00 | 0.00 | 99 | 1020.6 |
| 20260506083846 | -3 | 276 | 0.0 | 0.0 | 0.00 | 0.00 | 0.00 | 99 | 1020.8 |
| 20260506083344 | -3 | 276 | 0.0 | 0.0 | 0.00 | 0.00 | 0.00 | 99 | 1020.7 |
| 20260506082841 | -3 | 275 | 0.0 | 0.0 | 0.00 | 0.00 | 0.00 | 99 | 1021.1 |
| 20260506082337 | -3 | 275 | 0.0 | 0.0 | 0.00 | 0.00 | 0.00 | 99 | 1020.8 |
| 20260506081833 | -3 | 275 | 0.0 | 0.0 | 0.00 | 0.00 | 0.00 | 99 | 1020.9 |
| 20260506081332 | -3 | 275 | 0.0 | 0.0 | 0.00 | 0.00 | 0.00 | 99 | 1020.9 |
| 20260506080829 | -3 | 275 | 0.0 | 0.0 | 0.00 | 0.00 | 0.00 | 99 | 1021.2 |
| 20260506080325 | -3 | 275 | 0.0 | 0.0 | 0.00 | 0.00 | 0.00 | 99 | 1020.9 |
| 20260506073304 | -3 | 275 | 0.0 | 0.0 | 0.00 | 0.00 | 0.00 | 99 | 1020.8 |
| 20260506072800 | -3 | 275 | 0.0 | 0.0 | 0.00 | 0.00 | 0.00 | 99 | 1020.6 |
| 20260506072258 | -3 | 274 | 0.0 | 0.0 | 0.00 | 0.00 | 0.00 | 99 | 1020.8 |
| 20260506071755 | -3 | 274 | 0.0 | 0.0 | 0.00 | 0.00 | 0.00 | 99 | 1020.9 |
| 20260506071253 | -3 | 274 | 0.0 | 0.0 | 0.00 | 0.00 | 0.00 | 99 | 1021.3 |
| 20260506070744 | -3 | 274 | 0.0 | 0.0 | 0.00 | 0.00 | 0.00 | 99 | 1020.9 |
| 20260506070241 | -3 | 274 | 0.0 | 0.0 | 0.00 | 0.00 | 0.00 | 99 | 1021.3 |
| 20260506062218 | -3 | 274 | 0.0 | 0.0 | 0.00 | 0.00 | 0.00 | 99 | 1020.4 |
| 20260506061714 | -3 | 274 | 0.0 | 0.0 | 0.00 | 0.00 | 0.00 | 99 | 1020.4 |
| 20260506061212 | -3 | 274 | 0.0 | 0.0 | 0.00 | 0.00 | 0.00 | 99 | 1020.2 |
| 20260506060711 | -3 | 274 | 0.0 | 0.0 | 0.00 | 0.00 | 0.00 | 99 | 1020.3 |
| 20260506060207 | -3 | 274 | 0.0 | 0.0 | 0.00 | 0.00 | 0.00 | 99 | 1020.4 |
| 20260506051139 | -3 | 275 | 0.0 | 0.0 | 0.00 | 0.05 | 0.05 | 99 | 1020.6 |
| 20260506050638 | -3 | 275 | 0.0 | 0.0 | 0.00 | 0.05 | 0.05 | 99 | 1019.9 |
| 20260506050134 | -3 | 275 | 0.0 | 0.0 | 0.00 | 0.05 | 0.05 | 99 | 1020.2 |
| 20260506045126 | -3 | 275 | 0.0 | 0.0 | 0.00 | 0.05 | 0.05 | 99 | 1020.3 |
| 20260506044625 | -3 | 275 | 0.0 | 0.0 | 0.00 | 0.05 | 0.05 | 99 | 1020.3 |
| 20260506044122 | -3 | 275 | 0.0 | 0.0 | 0.00 | 0.05 | 0.05 | 99 | 1020.3 |
| 20260506043619 | -3 | 275 | 0.0 | 0.0 | 0.00 | 0.05 | 0.05 | 99 | 1020.4 |
| 20260506043117 | -3 | 275 | 0.0 | 0.0 | 0.00 | 0.05 | 0.05 | 99 | 1020.3 |
| 20260506042616 | -3 | 275 | 0.0 | 0.0 | 0.00 | 0.05 | 0.05 | 99 | 1020.2 |
| 20260506042113 | -3 | 275 | 0.0 | 0.0 | 0.00 | 0.05 | 0.05 | 99 | 1020.2 |
| 20260506041612 | -3 | 275 | 0.0 | 0.0 | 0.00 | 0.05 | 0.05 | 99 | 1020.2 |
| 20260506041108 | -3 | 275 | 0.0 | 0.0 | 0.00 | 0.05 | 0.05 | 99 | 1020.2 |
| 20260506040606 | -3 | 276 | 0.0 | 0.0 | 0.00 | 0.05 | 0.05 | 99 | 1020.6 |
| 20260506035559 | -3 | 276 | 0.0 | 0.0 | 0.00 | 0.05 | 0.05 | 99 | 1020.2 |
| 20260506035056 | -3 | 276 | 0.0 | 0.0 | 0.00 | 0.05 | 0.05 | 99 | 1019.9 |
| 20260506034553 | -3 | 276 | 0.0 | 0.0 | 0.00 | 0.05 | 0.05 | 99 | 1019.9 |
| 20260506034050 | -3 | 276 | 0.0 | 0.0 | 0.00 | 0.05 | 0.05 | 99 | 1020.1 |
| 20260506033547 | -3 | 276 | 0.0 | 0.0 | 0.00 | 0.05 | 0.05 | 99 | 1020.1 |
| 20260506033044 | -3 | 276 | 0.0 | 0.0 | 0.00 | 0.05 | 0.05 | 99 | 1019.8 |
| 20260506032542 | -3 | 276 | 0.0 | 0.0 | 0.00 | 0.05 | 0.05 | 99 | 1019.8 |
| 20260506032038 | -3 | 276 | 0.0 | 0.0 | 0.00 | 0.05 | 0.05 | 99 | 1019.8 |
| 20260506031536 | -3 | 276 | 0.0 | 0.0 | 0.00 | 0.05 | 0.05 | 99 | 1019.9 |
| 20260506031033 | -3 | 276 | 0.0 | 0.0 | 0.00 | 0.05 | 0.05 | 99 | 1019.7 |
| 20260506030531 | -3 | 276 | 0.0 | 0.0 | 0.00 | 0.05 | 0.05 | 99 | 1019.4 |
| 20260506030028 | -3 | 276 | 0.0 | 0.0 | 0.00 | 0.05 | 0.05 | 99 | 1019.3 |
| 20260506025525 | -3 | 276 | 0.0 | 0.0 | 0.00 | 0.05 | 0.05 | 99 | 1019.6 |
| 20260506025021 | -3 | 276 | 0.0 | 0.0 | 0.00 | 0.05 | 0.05 | 99 | 1019.2 |
| 20260506024518 | -3 | 277 | 0.0 | 0.0 | 0.00 | 0.05 | 0.05 | 99 | 1019.2 |
| 20260506024014 | -3 | 276 | 0.0 | 0.0 | 0.00 | 0.05 | 0.05 | 99 | 1019.3 |
| 20260506023510 | -3 | 277 | 0.0 | 0.0 | 0.00 | 0.05 | 0.05 | 99 | 1019.0 |
| 20260506023008 | -3 | 277 | 0.0 | 0.0 | 0.00 | 0.05 | 0.05 | 99 | 1019.2 |
| 20260506022505 | -3 | 277 | 0.0 | 0.0 | 0.00 | 0.05 | 0.05 | 99 | 1019.0 |
| 20260506022003 | -3 | 277 | 0.0 | 0.0 | 0.00 | 0.05 | 0.05 | 99 | 1018.9 |
| 20260506021500 | -3 | 277 | 0.0 | 0.0 | 0.00 | 0.05 | 0.05 | 99 | 1018.7 |
| 20260506020957 | -3 | 277 | 0.0 | 0.0 | 0.00 | 0.05 | 0.05 | 99 | 1019.0 |
| 20260506020455 | -3 | 277 | 0.0 | 0.0 | 0.00 | 0.05 | 0.05 | 99 | 1018.9 |
| 20260506015951 | -3 | 278 | 0.0 | 0.0 | 0.00 | 0.05 | 0.05 | 99 | 1018.9 |
| 20260506015449 | -3 | 247 | 0.0 | 0.0 | 0.00 | 0.05 | 0.05 | 99 | 1018.7 |
| 20260506014946 | -2 | 234 | 0.0 | 0.0 | 0.00 | 0.05 | 0.05 | 99 | 1018.4 |
| 20260506014443 | -2 | 229 | 0.0 | 0.0 | 0.00 | 0.05 | 0.05 | 99 | 1018.2 |
| 20260506013939 | -2 | 232 | 0.0 | 0.0 | 0.00 | 0.05 | 0.05 | 99 | 1018.4 |
| 20260506013438 | -3 | 232 | 0.0 | 0.0 | 0.00 | 0.05 | 0.05 | 99 | 1018.8 |
| 20260506012933 | -2 | 0 | 0.0 | 0.0 | 0.00 | 0.05 | 0.05 | 99 | 1018.3 |
| 20260506012430 | -2 | 334 | 0.0 | 0.0 | 0.00 | 0.05 | 0.05 | 99 | 1018.3 |
| 20260506011927 | -2 | 270 | 1.6 | 1.6 | 0.00 | 0.05 | 0.05 | 99 | 1018.2 |
| 20260506011424 | -2 | 284 | 0.0 | 0.0 | 0.00 | 0.05 | 0.05 | 99 | 1018.3 |
| 20260506010921 | -2 | 228 | 0.0 | 0.0 | 0.00 | 0.05 | 0.05 | 99 | 1018.2 |
| 20260506010420 | -2 | 231 | 0.0 | 0.0 | 0.00 | 0.05 | 0.05 | 99 | 1018.3 |
| 20260506005915 | -2 | 233 | 0.0 | 0.0 | 0.00 | 0.05 | 0.05 | 99 | 1018.4 |
| 20260506005414 | -2 | 239 | 0.0 | 1.6 | 0.00 | 0.05 | 0.05 | 99 | 1018.3 |
| 20260506004909 | -2 | 346 | 3.2 | 3.2 | 0.00 | 0.05 | 0.05 | 99 | 1018.3 |
| 20260506004407 | -2 | 284 | 3.2 | 3.2 | 0.00 | 0.05 | 0.05 | 99 | 1017.9 |
| 20260506003902 | -2 | 21 | 3.2 | 3.2 | 0.00 | 0.05 | 0.05 | 99 | 1017.9 |
| 20260506003359 | -2 | 8 | 0.0 | 1.6 | 0.00 | 0.05 | 0.05 | 99 | 1018.0 |
| 20260506002856 | -2 | 279 | 0.0 | 0.0 | 0.00 | 0.05 | 0.05 | 99 | 1017.9 |
| 20260506002352 | -2 | 322 | 1.6 | 3.2 | 0.00 | 0.05 | 0.05 | 99 | 1018.2 |
| 20260506001848 | -1 | 233 | 0.0 | 0.0 | 0.00 | 0.05 | 0.05 | 99 | 1018.0 |
| 20260506001344 | -1 | 233 | 1.6 | 1.6 | 0.00 | 0.05 | 0.05 | 99 | 1017.9 |
| 20260506000842 | -1 | 333 | 3.2 | 3.2 | 0.00 | 0.05 | 0.05 | 99 | 1017.7 |
| 20260506000340 | -1 | 278 | 3.2 | 4.8 | 0.00 | 0.05 | 0.05 | 99 | 1017.7 |
| 20260505235836 | -1 | 218 | 0.0 | 0.0 | 0.00 | 0.05 | 0.05 | 99 | 1017.5 |
| 20260505235334 | -1 | 326 | 0.0 | 1.6 | 0.00 | 0.05 | 0.05 | 99 | 1017.7 |
| 20260505234830 | -1 | 6 | 1.6 | 3.2 | 0.00 | 0.05 | 0.05 | 99 | 1017.7 |
| 20260505234328 | -1 | 268 | 1.6 | 1.6 | 0.00 | 0.05 | 0.05 | 99 | 1017.5 |
| 20260505233825 | -1 | 232 | 1.6 | 1.6 | 0.00 | 0.05 | 0.05 | 99 | 1017.4 |
| 20260505233323 | -1 | 227 | 1.6 | 1.6 | 0.00 | 0.05 | 0.05 | 99 | 1017.4 |
| 20260505232820 | -1 | 312 | 1.6 | 1.6 | 0.00 | 0.05 | 0.05 | 99 | 1017.4 |
| 20260505232317 | -1 | 302 | 4.8 | 8.0 | 0.00 | 0.05 | 0.05 | 99 | 1017.4 |
| 20260505231814 | -1 | 47 | 3.2 | 3.2 | 0.00 | 0.05 | 0.05 | 99 | 1017.5 |
| 20260505231312 | -1 | 265 | 0.0 | 1.6 | 0.00 | 0.05 | 0.05 | 99 | 1017.8 |
| 20260505230809 | -1 | 252 | 4.8 | 4.8 | 0.00 | 0.05 | 0.05 | 99 | 1017.7 |
| 20260505230306 | -1 | 304 | 4.8 | 4.8 | 0.00 | 0.05 | 0.05 | 99 | 1017.3 |
| 20260505225803 | 0 | 321 | 1.6 | 1.6 | 0.00 | 0.05 | 0.05 | 99 | 1017.0 |
| 20260505225300 | 0 | 288 | 6.4 | 8.0 | 0.00 | 0.05 | 0.05 | 99 | 1016.6 |
| 20260505224755 | 0 | 296 | 4.8 | 4.8 | 0.00 | 0.05 | 0.05 | 99 | 1017.0 |
| 20260505224254 | 0 | 352 | 4.8 | 4.8 | 0.00 | 0.05 | 0.05 | 99 | 1016.9 |
| 20260505223751 | 0 | 258 | 4.8 | 4.8 | 0.00 | 0.05 | 0.05 | 99 | 1017.4 |
| 20260505223247 | 0 | 220 | 0.0 | 1.6 | 0.00 | 0.05 | 0.05 | 99 | 1017.4 |
| 20260505222743 | 0 | 228 | 0.0 | 0.0 | 0.00 | 0.05 | 0.05 | 99 | 1017.0 |
| 20260505222239 | 0 | 235 | 1.6 | 1.6 | 0.00 | 0.05 | 0.05 | 99 | 1017.0 |
| 20260505221736 | 0 | 236 | 4.8 | 4.8 | 0.00 | 0.05 | 0.05 | 99 | 1016.9 |
| 20260505221233 | 0 | 226 | 0.0 | 0.0 | 0.00 | 0.05 | 0.05 | 99 | 1016.8 |
| 20260505220730 | 0 | 349 | 3.2 | 3.2 | 0.00 | 0.05 | 0.05 | 99 | 1016.5 |
| 20260505220228 | 0 | 313 | 1.6 | 3.2 | 0.00 | 0.05 | 0.05 | 99 | 1016.9 |
| 20260505215726 | 0 | 227 | 0.0 | 0.0 | 0.00 | 0.05 | 0.05 | 99 | 1016.6 |
| 20260505215223 | 0 | 74 | 4.8 | 4.8 | 0.18 | 0.05 | 0.05 | 99 | 1016.6 |
| 20260505214721 | 0 | 281 | 0.0 | 0.0 | 0.18 | 0.05 | 0.05 | 99 | 1016.8 |
| 20260505214218 | 0 | 231 | 1.6 | 1.6 | 0.00 | 0.03 | 0.03 | 99 | 1016.8 |
| 20260505213715 | 0 | 223 | 0.0 | 0.0 | 0.00 | 0.03 | 0.03 | 99 | 1016.9 |
| 20260505213212 | 0 | 266 | 1.6 | 1.6 | 0.00 | 0.03 | 0.03 | 99 | 1016.8 |
| 20260505212708 | 0 | 342 | 4.8 | 4.8 | 0.00 | 0.03 | 0.03 | 99 | 1016.9 |
| 20260505212206 | 0 | 68 | 3.2 | 3.2 | 0.00 | 0.03 | 0.03 | 99 | 1016.8 |